XW-3 (CAS-9)

Last updated on Thu Mar 05 2026 00:03:21 GMT+0000 (Coordinated Universal Time)

1 50466U 21131B 26063.64430242 .00000970 00000+0 31390-3 0 9995 2 50466 98.4970 156.6290 0005065 62.1779 297.9922 14.41243846220053
UTC large
Height (km)
Speed (km/s)
/
Latitude / Longitude
Inclination (degrees)
Orbital Period (minutes)
Azimuth
Elevation
Range (km)
Doppler Factor

Next 0 passes for location: London (51.5072 / 0.1276)

Sorry there are no passes over London.